TimeCDT,TemperatureF,Dew PointF,Humidity,Sea Level PressureIn,VisibilityMPH,Wind Direction,Wind SpeedMPH,Gust SpeedMPH,PrecipitationIn,Events,Conditions,WindDirDegrees,DateUTC
12:15 AM,69.8,62.6,78,29.84,10.0,East,11.5,-,N/A,,Overcast,100,2012-09-30 05:15:00
12:35 AM,68.0,60.8,78,29.83,10.0,East,9.2,-,N/A,,Scattered Clouds,100,2012-09-30 05:35:00
12:55 AM,66.2,60.8,83,29.83,10.0,ESE,9.2,-,0.01,,Partly Cloudy,110,2012-09-30 05:55:00
1:15 AM,66.2,62.6,88,29.83,10.0,ESE,5.8,-,N/A,,Scattered Clouds,120,2012-09-30 06:15:00
1:35 AM,66.2,60.8,83,29.81,10.0,East,6.9,-,N/A,,Mostly Cloudy,100,2012-09-30 06:35:00
1:55 AM,66.2,60.8,83,29.82,10.0,East,8.1,-,N/A,,Overcast,100,2012-09-30 06:55:00
2:15 AM,66.2,60.8,83,29.81,10.0,ESE,8.1,-,0.01,,Mostly Cloudy,110,2012-09-30 07:15:00
2:35 AM,66.2,60.8,83,29.80,10.0,East,8.1,-,0.01,,Mostly Cloudy,90,2012-09-30 07:35:00
2:55 AM,66.2,62.6,88,29.80,10.0,ESE,8.1,-,0.01,,Mostly Cloudy,110,2012-09-30 07:55:00
3:15 AM,66.2,60.8,83,29.78,10.0,East,8.1,-,N/A,,Overcast,90,2012-09-30 08:15:00
3:35 AM,66.2,60.8,83,29.78,10.0,East,6.9,-,N/A,,Overcast,100,2012-09-30 08:35:00
3:55 AM,66.2,62.6,88,29.76,7.0,ESE,6.9,-,0.01,,Overcast,110,2012-09-30 08:55:00
4:15 AM,66.2,62.6,88,29.76,7.0,ESE,8.1,-,N/A,,Overcast,110,2012-09-30 09:15:00
4:35 AM,66.2,62.6,88,29.74,5.0,East,5.8,-,N/A,,Overcast,100,2012-09-30 09:35:00
4:55 AM,68.0,62.6,83,29.74,9.0,ESE,5.8,-,0.01,,Overcast,110,2012-09-30 09:55:00
5:15 AM,68.0,62.6,83,29.73,10.0,ESE,5.8,-,N/A,,Overcast,110,2012-09-30 10:15:00
5:35 AM,68.0,62.6,83,29.72,8.0,ESE,6.9,-,N/A,,Overcast,120,2012-09-30 10:35:00
5:55 AM,69.8,64.4,83,29.72,10.0,ESE,8.1,-,N/A,,Overcast,120,2012-09-30 10:55:00
6:15 AM,69.8,64.4,83,29.72,9.0,SE,5.8,-,N/A,,Overcast,130,2012-09-30 11:15:00
6:35 AM,69.8,64.4,83,29.72,9.0,ESE,8.1,-,N/A,,Overcast,120,2012-09-30 11:35:00
6:55 AM,69.8,62.6,78,29.70,10.0,ESE,8.1,-,0.01,,Mostly Cloudy,110,2012-09-30 11:55:00
7:15 AM,69.8,64.4,83,29.70,10.0,ESE,8.1,-,N/A,,Mostly Cloudy,120,2012-09-30 12:15:00
7:35 AM,69.8,64.4,83,29.71,10.0,ESE,10.4,-,N/A,,Overcast,120,2012-09-30 12:35:00
7:55 AM,69.8,64.4,83,29.71,10.0,SE,8.1,-,N/A,,Overcast,130,2012-09-30 12:55:00
8:15 AM,69.8,64.4,83,29.70,10.0,ESE,10.4,-,N/A,,Overcast,120,2012-09-30 13:15:00
8:35 AM,71.6,66.2,83,29.70,10.0,SE,10.4,-,N/A,,Overcast,130,2012-09-30 13:35:00
8:55 AM,71.6,64.4,78,29.69,10.0,SE,11.5,16.1,0.02,,Overcast,130,2012-09-30 13:55:00
9:15 AM,71.6,64.4,78,29.69,10.0,SE,11.5,16.1,0.04,,Overcast,130,2012-09-30 14:15:00
9:35 AM,71.6,66.2,83,29.68,10.0,SE,12.7,16.1,0.10,,Mostly Cloudy,130,2012-09-30 14:35:00
9:55 AM,71.6,66.2,83,29.69,9.0,SSE,10.4,-,0.12,,Overcast,150,2012-09-30 14:55:00
10:15 AM,71.6,68.0,88,29.69,10.0,South,8.1,-,0.02,,Mostly Cloudy,170,2012-09-30 15:15:00
10:35 AM,71.6,66.2,83,29.68,7.0,South,8.1,-,0.13,,Overcast,180,2012-09-30 15:35:00
10:55 AM,71.6,66.2,83,29.68,9.0,SE,8.1,-,0.17,,Overcast,140,2012-09-30 15:55:00
11:35 AM,71.6,68.0,88,29.67,8.0,South,12.7,-,0.13,,Overcast,170,2012-09-30 16:35:00
11:55 AM,71.6,66.2,83,29.64,10.0,ESE,8.1,16.1,0.24,,Overcast,120,2012-09-30 16:55:00
12:15 PM,73.4,68.0,83,29.65,10.0,South,10.4,-,N/A,,Overcast,170,2012-09-30 17:15:00
12:35 PM,73.4,69.8,88,29.63,10.0,South,8.1,-,0.02,,Overcast,170,2012-09-30 17:35:00
12:55 PM,73.4,69.8,88,29.63,10.0,SSE,17.3,20.7,0.02,,Overcast,160,2012-09-30 17:55:00
1:15 PM,73.4,69.8,88,29.60,10.0,SSE,10.4,-,0.01,,Overcast,150,2012-09-30 18:15:00
1:35 PM,73.4,69.8,88,29.60,10.0,SSE,11.5,-,0.02,,Overcast,160,2012-09-30 18:35:00
1:55 PM,75.2,69.8,83,29.59,10.0,South,9.2,-,0.03,,Overcast,170,2012-09-30 18:55:00
2:15 PM,77.0,71.6,83,29.58,10.0,South,12.7,20.7,N/A,,Overcast,170,2012-09-30 19:15:00
2:35 PM,78.8,71.6,78,29.57,10.0,South,15.0,23.0,N/A,,Overcast,180,2012-09-30 19:35:00
3:15 PM,80.6,69.8,70,29.54,10.0,South,15.0,23.0,N/A,,Partly Cloudy,170,2012-09-30 20:15:00
3:35 PM,80.6,69.8,70,29.53,10.0,SSE,13.8,18.4,N/A,,Scattered Clouds,150,2012-09-30 20:35:00
3:55 PM,80.6,69.8,70,29.52,10.0,South,12.7,20.7,N/A,,Mostly Cloudy,170,2012-09-30 20:55:00
4:15 PM,80.6,69.8,70,29.51,10.0,South,13.8,20.7,N/A,,Mostly Cloudy,170,2012-09-30 21:15:00
4:35 PM,78.8,69.8,74,29.51,10.0,SSE,13.8,19.6,N/A,,Overcast,160,2012-09-30 21:35:00
4:55 PM,78.8,69.8,74,29.50,10.0,SE,10.4,-,N/A,,Overcast,140,2012-09-30 21:55:00
5:15 PM,78.8,69.8,74,29.50,10.0,SE,4.6,-,N/A,,Overcast,140,2012-09-30 22:15:00
5:35 PM,77.0,69.8,78,29.50,10.0,SE,5.8,-,N/A,,Overcast,130,2012-09-30 22:35:00
5:55 PM,77.0,69.8,78,29.51,10.0,Calm,Calm,-,N/A,,Overcast,0,2012-09-30 22:55:00
6:15 PM,75.2,68.0,78,29.52,10.0,WNW,5.8,-,N/A,,Overcast,300,2012-09-30 23:15:00
6:35 PM,75.2,68.0,78,29.52,10.0,SW,4.6,-,N/A,,Overcast,230,2012-09-30 23:35:00
7:15 PM,73.4,64.4,73,29.51,10.0,NNW,10.4,-,N/A,,Overcast,330,2012-10-01 00:15:00
7:35 PM,69.8,62.6,78,29.52,10.0,NNW,9.2,-,N/A,,Overcast,340,2012-10-01 00:35:00
7:55 PM,68.0,60.8,78,29.53,10.0,North,8.1,-,N/A,,Overcast,350,2012-10-01 00:55:00
8:15 PM,66.2,59.0,78,29.53,10.0,North,11.5,-,0.01,,Overcast,10,2012-10-01 01:15:00
8:35 PM,64.4,57.2,77,29.54,10.0,North,9.2,-,0.02,,Overcast,350,2012-10-01 01:35:00
8:55 PM,62.6,55.4,77,29.54,10.0,North,13.8,-,0.03,,Overcast,360,2012-10-01 01:55:00
9:15 PM,62.6,57.2,82,29.56,10.0,NNW,8.1,17.3,N/A,,Overcast,330,2012-10-01 02:15:00
9:35 PM,62.6,55.4,77,29.57,10.0,NNW,8.1,-,N/A,,Overcast,340,2012-10-01 02:35:00
10:15 PM,60.8,55.4,82,29.58,7.0,NNW,6.9,-,N/A,,Overcast,340,2012-10-01 03:15:00
10:35 PM,60.8,55.4,82,29.58,5.0,NW,6.9,-,0.01,,Overcast,320,2012-10-01 03:35:00
11:15 PM,60.8,53.6,77,29.57,8.0,NNW,9.2,-,N/A,,Overcast,340,2012-10-01 04:15:00
11:35 PM,60.8,53.6,77,29.57,10.0,NNW,8.1,-,N/A,,Overcast,340,2012-10-01 04:35:00
11:55 PM,60.8,53.6,77,29.57,10.0,NNW,8.1,-,N/A,,Overcast,340,2012-10-01 04:55:00